Change the Weather History Date:

Wednesday, June 12, 2013

  Actual Average Record
Temperature  
Mean Temperature 72 °F -  
Max Temperature 86 °F 86 °F 106 °F (1960)
Min Temperature 57 °F 55 °F 41 °F (1952)
Degree Days  
Heating Degree Days 0    
Cooling Degree Days 7    
Growing Degree Days 22 (Base 50)    
Moisture  
Dew Point 48 °F    
Average Humidity 51    
Maximum Humidity 77    
Minimum Humidity 25    
Precipitation  
Precipitation 0.00 in 0.01 in 0.48 in (1998)
Month to date precipitation 0.00 0.14  
Year to date precipitation 3.69 11.83  
Since 1 July precipitation 14.98 18.45  
Sea Level Pressure  
Sea Level Pressure 29.89 in    
Wind  
Wind Speed 6 mph (SSW)    
Max Wind Speed 14 mph    
Max Gust Speed 21 mph    
Visibility 10 miles    
Events      
T = Trace of Precipitation, MM = Missing Value Source: NWS Daily Summary

Daily Weather History Graph

Daily Weather History Graph

Search for Another Location

Airport or City:

Trip Planner

Search our weather history database for the weather conditions in past years. The results will help you decide how hot, cold, wet, or windy it might be!

Date:

Astronomy

Jun. 12, 2013 Rise Set
Actual Time 5:41 AM PDT 8:30 PM PDT
Civil Twilight 5:09 AM PDT 9:02 PM PDT
Nautical Twilight 4:29 AM PDT 9:42 PM PDT
Astronomical Twilight 3:44 AM PDT 10:27 PM PDT
Moon 9:23 AM PDT (6/12) 11:11 PM PDT (6/12)
Length of Visible Light 15h 52m
Length of Day
14h 49m
Waxing Crescent, 15% of the Moon is Illuminated
Jun 12
Waxing Crescent
Jun 16
First Quarter
Jun 23
Full
Jun 29
Last Quarter
Jul 8
New

Hourly Weather History & Observations

Time (PDT) Temp. Dew Point Humidity Pressure Visibility Wind Dir Wind Speed Gust Speed Precip Events Conditions
12:53 AM 62.1 °F 48.0 °F 60% 29.87 in 10.0 mi SSE 4.6 mph - N/A   Clear
1:53 AM 61.0 °F 48.0 °F 62% 29.87 in 10.0 mi SSE 3.5 mph - N/A   Clear
2:53 AM 60.1 °F 48.9 °F 67% 29.87 in 10.0 mi SSE 3.5 mph - N/A   Clear
3:53 AM 59.0 °F 48.0 °F 67% 29.87 in 10.0 mi SSE 3.5 mph - N/A   Clear
4:53 AM 59.0 °F 48.9 °F 69% 29.87 in 10.0 mi South 3.5 mph - N/A   Clear
5:53 AM 57.0 °F 48.0 °F 72% 29.89 in 10.0 mi South 3.5 mph - N/A   Clear
6:53 AM 57.0 °F 50.0 °F 77% 29.90 in 10.0 mi Calm Calm - N/A   Clear
7:53 AM 60.1 °F 50.0 °F 69% 29.91 in 10.0 mi SSW 3.5 mph - N/A   Clear
8:53 AM 64.9 °F 52.0 °F 63% 29.92 in 10.0 mi Calm Calm - N/A   Clear
9:53 AM 71.1 °F 54.0 °F 55% 29.93 in 10.0 mi Variable 6.9 mph - N/A   Clear
10:53 AM 75.9 °F 54.0 °F 46% 29.93 in 10.0 mi WNW 6.9 mph - N/A   Clear
11:53 AM 78.1 °F 54.0 °F 43% 29.93 in 10.0 mi West 4.6 mph - N/A   Clear
12:53 PM 82.0 °F 48.9 °F 31% 29.91 in 10.0 mi Variable 3.5 mph - N/A   Clear
1:53 PM 84.9 °F 48.9 °F 29% 29.90 in 10.0 mi SW 9.2 mph - N/A   Clear
2:53 PM 84.9 °F 45.0 °F 25% 29.89 in 10.0 mi SSW 9.2 mph - N/A   Clear
3:53 PM 86.0 °F 46.0 °F 25% 29.88 in 10.0 mi SW 10.4 mph - N/A   Clear
4:53 PM 86.0 °F 46.0 °F 25% 29.87 in 10.0 mi SW 11.5 mph 18.4 mph N/A   Clear
5:53 PM 82.9 °F 45.0 °F 26% 29.86 in 10.0 mi SW 15.0 mph 19.6 mph N/A   Clear
6:53 PM 80.1 °F 44.1 °F 28% 29.86 in 10.0 mi SW 15.0 mph 21.9 mph N/A   Clear
7:53 PM 73.9 °F 45.0 °F 35% 29.87 in 10.0 mi SW 13.8 mph 19.6 mph N/A   Clear
8:53 PM 70.0 °F 45.0 °F 41% 29.88 in 10.0 mi SW 11.5 mph 19.6 mph N/A   Clear
9:53 PM 66.0 °F 45.0 °F 47% 29.89 in 10.0 mi SSW 10.4 mph 18.4 mph N/A   Clear
10:53 PM 63.0 °F 45.0 °F 52% 29.92 in 10.0 mi SW 5.8 mph - N/A   Clear
11:53 PM 61.0 °F 46.0 °F 58% 29.93 in 10.0 mi SSW 5.8 mph - N/A   Clear